When you browse on this site, cookies collect data to enhance your experience and personalize the content and advertising you see.
Visit our Privacy Policy to learn more. By continuing to use the site, you agree to this use of cookies and data.
  • In Portugal
  • List of Countries
  • For 7 days
  • Water Temperature
  • Satellite Maps
  • Weather Map
  • Weather Widgets
  • user-avatar
    Login

    Hourly Weather Lubango

    Today, 15 December, Saturday

    Time Temperature Precipitation Wind Pressure Humidity
    00:00 +16°C° 0 mm 1 mps 609 mmHg 60%
    01:00 +15°C° 0 mm 1 mps 609 mmHg 60%
    02:00 +15°C° 0 mm 1 mps 609 mmHg 61%
    03:00 +15°C° 0 mm 1 mps 608 mmHg 62%
    04:00 +14°C° 0 mm 1 mps 608 mmHg 63%
    05:00 +16°C° 0 mm 1 mps 609 mmHg 58%
    06:00 +18°C° 0 mm 1 mps 610 mmHg 53%
    07:00 +21°C° 0 mm 1 mps 611 mmHg 45%
    08:00 +23°C° 0 mm 1 mps 612 mmHg 38%
    09:00 +26°C° 0 mm 1 mps 613 mmHg 31%
    10:00 +28°C° 0 mm 2 mps 614 mmHg 24%
    11:00 +29°C° 0 mm 2 mps 614 mmHg 23%
    12:00 +30°C° 0 mm 2 mps 614 mmHg 22%
    13:00 +31°C° 0 mm 3 mps 613 mmHg 21%
    14:00 +30°C° 0 mm 3 mps 613 mmHg 24%
    15:00 +29°C° 0 mm 3 mps 612 mmHg 26%
    16:00 +28°C° 0 mm 3 mps 611 mmHg 29%
    17:00 +25°C° 0 mm 3 mps 611 mmHg 38%
    18:00 +22°C° 0 mm 3 mps 610 mmHg 47%
    19:00 +19°C° 0 mm 2 mps 610 mmHg 57%
    20:00 +18°C° 0 mm 2 mps 610 mmHg 63%
    21:00 +17°C° 0 mm 2 mps 610 mmHg 69%
    22:00 +16°C° 0 mm 1 mps 610 mmHg 75%
    23:00 +15°C° 0 mm 1 mps 610 mmHg 77%

    Tomorrow, 16 December, Sunday

    Time Temperature Precipitation Wind Pressure Humidity
    00:00 +15°C° 0 mm 1 mps 609 mmHg 79%
    01:00 +14°C° 0 mm 1 mps 609 mmHg 81%
    02:00 +14°C° 0 mm 1 mps 609 mmHg 82%
    03:00 +14°C° 0 mm 1 mps 609 mmHg 83%
    04:00 +13°C° 0 mm 1 mps 608 mmHg 84%
    05:00 +14°C° 0 mm 1 mps 609 mmHg 78%
    06:00 +16°C° 0 mm 1 mps 610 mmHg 71%
    07:00 +18°C° 0 mm 1 mps 610 mmHg 65%
    08:00 +20°C° 0 mm 1 mps 611 mmHg 53%
    09:00 +23°C° 0 mm 2 mps 612 mmHg 42%
    10:00 +26°C° 0 mm 2 mps 614 mmHg 30%
    11:00 +27°C° 0 mm 2 mps 614 mmHg 28%
    12:00 +29°C° 0 mm 3 mps 614 mmHg 26%
    13:00 +30°C° 0 mm 3 mps 614 mmHg 23%
    14:00 +29°C° 0 mm 4 mps 613 mmHg 26%
    15:00 +28°C° 0 mm 4 mps 612 mmHg 29%
    16:00 +26°C° 0 mm 5 mps 611 mmHg 32%
    17:00 +23°C° 0 mm 4 mps 611 mmHg 40%
    18:00 +21°C° 0 mm 4 mps 610 mmHg 47%
    19:00 +18°C° 0 mm 3 mps 610 mmHg 55%
    20:00 +17°C° 0 mm 3 mps 610 mmHg 61%
    21:00 +16°C° 0 mm 2 mps 610 mmHg 66%
    22:00 +15°C° 0 mm 2 mps 610 mmHg 72%
    23:00 +15°C° 0 mm 2 mps 610 mmHg 75%

    Day after tomorrow, 17 December, Monday

    Time Temperature Precipitation Wind Pressure Humidity
    00:00 +14°C° 0 mm 1 mps 610 mmHg 79%
    01:00 +14°C° 0 mm 1 mps 609 mmHg 82%
    02:00 +13°C° 0 mm 1 mps 609 mmHg 82%
    03:00 +13°C° 0 mm 1 mps 609 mmHg 83%
    04:00 +13°C° 0 mm 1 mps 609 mmHg 83%
    05:00 +14°C° 0 mm 1 mps 609 mmHg 77%
    06:00 +15°C° 0 mm 1 mps 610 mmHg 72%
    07:00 +16°C° 0 mm 1 mps 610 mmHg 66%
    08:00 +19°C° 0 mm 1 mps 611 mmHg 60%
    09:00 +20°C° 0 mm 1 mps 611 mmHg 54%
    10:00 +22°C° 0 mm 1 mps 612 mmHg 49%
    11:00 +24°C° 0 mm 1 mps 612 mmHg 43%
    12:00 +26°C° 0 mm 2 mps 612 mmHg 37%
    13:00 +28°C° 0 mm 3 mps 612 mmHg 31%
    14:00 +28°C° 0 mm 3 mps 611 mmHg 34%
    15:00 +27°C° 0 mm 3 mps 611 mmHg 36%
    16:00 +26°C° 0 mm 4 mps 610 mmHg 39%
    17:00 +24°C° 0 mm 3 mps 610 mmHg 47%
    18:00 +21°C° 0 mm 3 mps 609 mmHg 56%
    19:00 +19°C° 0 mm 2 mps 609 mmHg 65%
    20:00 +18°C° 0 mm 2 mps 609 mmHg 71%
    21:00 +16°C° 0 mm 2 mps 610 mmHg 78%
    22:00 +15°C° 0 mm 2 mps 610 mmHg 84%
    23:00 +15°C° 0 mm 1 mps 610 mmHg 86%

    18 December, Tuesday

    Time Temperature Precipitation Wind Pressure Humidity
    00:00 +15°C° 0 mm 1 mps 609 mmHg 88%
    01:00 +14°C° 0 mm 1 mps 609 mmHg 90%
    02:00 +14°C° 0 mm 1 mps 609 mmHg 89%
    03:00 +14°C° 0 mm 1 mps 609 mmHg 89%
    04:00 +14°C° 0 mm 1 mps 608 mmHg 88%
    05:00 +15°C° 0 mm 1 mps 609 mmHg 82%
    06:00 +16°C° 0 mm 1 mps 610 mmHg 77%
    07:00 +16°C° 0 mm 1 mps 610 mmHg 71%
    08:00 +20°C° 0 mm 1 mps 611 mmHg 60%
    09:00 +23°C° 0 mm 1 mps 612 mmHg 48%
    10:00 +25°C° 0 mm 1 mps 613 mmHg 37%
    11:00 +26°C° 0 mm 2 mps 613 mmHg 35%
    12:00 +27°C° 0 mm 2 mps 613 mmHg 32%
    13:00 +28°C° 0 mm 3 mps 612 mmHg 30%
    14:00 +28°C° 0 mm 3 mps 612 mmHg 31%
    15:00 +27°C° 0 mm 4 mps 611 mmHg 33%
    16:00 +26°C° 0 mm 4 mps 610 mmHg 35%
    17:00 +23°C° 0 mm 4 mps 610 mmHg 41%
    18:00 +21°C° 0 mm 3 mps 610 mmHg 46%
    19:00 +19°C° 0 mm 3 mps 609 mmHg 52%
    20:00 +18°C° 0 mm 2 mps 609 mmHg 58%
    21:00 +17°C° 0 mm 2 mps 610 mmHg 64%
    22:00 +15°C° 0 mm 2 mps 610 mmHg 69%
    23:00 +15°C° 0 mm 1 mps 609 mmHg 73%

    19 December, Wednesday

    Time Temperature Precipitation Wind Pressure Humidity
    00:00 +14°C° 0 mm 1 mps 609 mmHg 77%
    01:00 +13°C° 0 mm 1 mps 608 mmHg 81%
    02:00 +13°C° 0 mm 1 mps 608 mmHg 83%
    03:00 +12°C° 0 mm 1 mps 608 mmHg 84%
    04:00 +12°C° 0 mm 1 mps 607 mmHg 86%
    05:00 +13°C° 0 mm 1 mps 608 mmHg 78%
    06:00 +15°C° 0 mm 1 mps 609 mmHg 70%
    07:00 +16°C° 0 mm 1 mps 610 mmHg 62%
    08:00 +20°C° 0 mm 1 mps 611 mmHg 51%
    09:00 +23°C° 0 mm 1 mps 612 mmHg 40%
    10:00 +26°C° 0 mm 2 mps 613 mmHg 29%
    11:00 +27°C° 0 mm 2 mps 613 mmHg 26%
    12:00 +29°C° 0 mm 3 mps 613 mmHg 24%
    13:00 +30°C° 0 mm 3 mps 613 mmHg 22%
    14:00 +29°C° 0 mm 4 mps 612 mmHg 24%
    15:00 +28°C° 0 mm 4 mps 611 mmHg 27%
    16:00 +27°C° 0 mm 5 mps 610 mmHg 29%
    17:00 +25°C° 0 mm 4 mps 610 mmHg 38%
    18:00 +21°C° 0 mm 4 mps 609 mmHg 47%
    19:00 +18°C° 0 mm 3 mps 609 mmHg 56%
    20:00 +17°C° 0 mm 2 mps 609 mmHg 62%
    21:00 +16°C° 0 mm 2 mps 609 mmHg 68%
    22:00 +14°C° 0 mm 1 mps 609 mmHg 74%
    23:00 +14°C° 0 mm 1 mps 609 mmHg 76%

    20 December, Thursday

    Time Temperature Precipitation Wind Pressure Humidity
    00:00 +13°C° 0 mm 1 mps 608 mmHg 78%
    01:00 +13°C° 0 mm 1 mps 608 mmHg 81%
    02:00 +12°C° 0 mm 1 mps 608 mmHg 80%
    03:00 +12°C° 0 mm 1 mps 607 mmHg 79%
    04:00 +12°C° 0 mm 1 mps 607 mmHg 78%
    05:00 +14°C° 0 mm 1 mps 608 mmHg 70%
    06:00 +15°C° 0 mm 1 mps 609 mmHg 62%
    07:00 +16°C° 0 mm 0 mps 610 mmHg 54%
    08:00 +21°C° 0 mm 1 mps 611 mmHg 43%
    09:00 +24°C° 0 mm 2 mps 612 mmHg 33%
    10:00 +27°C° 0 mm 3 mps 613 mmHg 22%
    11:00 +29°C° 0 mm 3 mps 613 mmHg 21%
    12:00 +30°C° 0 mm 3 mps 613 mmHg 19%
    13:00 +31°C° 0 mm 3 mps 612 mmHg 18%
    14:00 +30°C° 0 mm 4 mps 612 mmHg 20%
    15:00 +29°C° 0 mm 4 mps 611 mmHg 23%
    16:00 +28°C° 0 mm 5 mps 610 mmHg 25%
    17:00 +25°C° 0 mm 4 mps 610 mmHg 32%
    18:00 +21°C° 0 mm 3 mps 609 mmHg 39%
    19:00 +19°C° 0 mm 3 mps 609 mmHg 46%
    20:00 +17°C° 0 mm 2 mps 609 mmHg 52%
    21:00 +16°C° 0 mm 2 mps 608 mmHg 57%
    22:00 +14°C° 0 mm 1 mps 608 mmHg 62%
    23:00 +14°C° 0 mm 1 mps 608 mmHg 63%
    Show more